Météo par heure à Juryszewo

Ce jour, 17 Juin, Jeudi

Heure Température Précipitation Vent Pression Humidité
00:00 +14°C° 0 mm 3 m/s 753 mmHg 75%
01:00 +13°C° 0 mm 3 m/s 753 mmHg 76%
02:00 +13°C° 0 mm 3 m/s 753 mmHg 78%
03:00 +13°C° 0 mm 3 m/s 753 mmHg 80%
04:00 +13°C° 0 mm 3 m/s 753 mmHg 83%
05:00 +16°C° 0 mm 3 m/s 753 mmHg 78%
06:00 +18°C° 0 mm 3 m/s 753 mmHg 73%
07:00 +19°C° 0 mm 3 m/s 753 mmHg 69%
08:00 +21°C° 0 mm 3 m/s 754 mmHg 65%
09:00 +22°C° 0 mm 4 m/s 754 mmHg 61%
10:00 +25°C° 0 mm 4 m/s 754 mmHg 57%
11:00 +25°C° 0 mm 4 m/s 754 mmHg 54%
12:00 +26°C° 0 mm 3 m/s 754 mmHg 51%
13:00 +27°C° 0 mm 3 m/s 754 mmHg 48%
14:00 +27°C° 0 mm 3 m/s 753 mmHg 48%
15:00 +27°C° 0 mm 3 m/s 753 mmHg 47%
16:00 +27°C° 0 mm 3 m/s 753 mmHg 47%
17:00 +25°C° 0 mm 3 m/s 753 mmHg 55%
18:00 +24°C° 0 mm 3 m/s 753 mmHg 62%
19:00 +21°C° 0 mm 3 m/s 753 mmHg 70%
20:00 +20°C° 0 mm 3 m/s 753 mmHg 71%
21:00 +19°C° 0 mm 3 m/s 753 mmHg 72%
22:00 +17°C° 0 mm 3 m/s 754 mmHg 74%
23:00 +17°C° 0 mm 3 m/s 754 mmHg 76%

Demain, 18 Juin, Vendredi

Heure Température Précipitation Vent Pression Humidité
00:00 +16°C° 0 mm 3 m/s 754 mmHg 78%
01:00 +14°C° 0 mm 3 m/s 753 mmHg 81%
02:00 +14°C° 0 mm 3 m/s 753 mmHg 82%
03:00 +14°C° 0 mm 3 m/s 753 mmHg 83%
04:00 +14°C° 0 mm 3 m/s 753 mmHg 84%
05:00 +17°C° 0 mm 3 m/s 753 mmHg 80%
06:00 +19°C° 0 mm 4 m/s 753 mmHg 75%
07:00 +21°C° 0 mm 4 m/s 753 mmHg 71%
08:00 +23°C° 0 mm 5 m/s 753 mmHg 66%
09:00 +25°C° 0 mm 5 m/s 753 mmHg 62%
10:00 +27°C° 0 mm 6 m/s 753 mmHg 57%
11:00 +28°C° 0 mm 6 m/s 753 mmHg 55%
12:00 +28°C° 0 mm 6 m/s 753 mmHg 52%
13:00 +29°C° 0 mm 5 m/s 752 mmHg 50%
14:00 +29°C° 0 mm 5 m/s 752 mmHg 51%
15:00 +29°C° 0 mm 5 m/s 752 mmHg 52%
16:00 +29°C° 0 mm 4 m/s 752 mmHg 53%
17:00 +28°C° 0 mm 4 m/s 752 mmHg 60%
18:00 +26°C° 0 mm 4 m/s 752 mmHg 67%
19:00 +25°C° 0 mm 3 m/s 752 mmHg 73%
20:00 +24°C° 0 mm 3 m/s 752 mmHg 76%
21:00 +21°C° 0 mm 3 m/s 752 mmHg 79%
22:00 +20°C° 0 mm 3 m/s 752 mmHg 81%
23:00 +19°C° 0 mm 3 m/s 752 mmHg 84%

Après-demain, 19 Juin, Samedi

Heure Température Précipitation Vent Pression Humidité
00:00 +19°C° 0 mm 3 m/s 752 mmHg 87%
01:00 +18°C° 0 mm 3 m/s 752 mmHg 90%
02:00 +18°C° 0 mm 3 m/s 752 mmHg 91%
03:00 +18°C° 0 mm 3 m/s 752 mmHg 92%
04:00 +17°C° 0 mm 3 m/s 752 mmHg 94%
05:00 +19°C° 0 mm 3 m/s 752 mmHg 88%
06:00 +21°C° 0 mm 4 m/s 752 mmHg 82%
07:00 +23°C° 0 mm 4 m/s 752 mmHg 76%
08:00 +25°C° 0 mm 4 m/s 752 mmHg 71%
09:00 +27°C° 0 mm 5 m/s 752 mmHg 65%
10:00 +28°C° 0 mm 5 m/s 752 mmHg 60%
11:00 +29°C° 0 mm 5 m/s 751 mmHg 57%
12:00 +29°C° 0 mm 5 m/s 751 mmHg 54%
13:00 +30°C° 0 mm 5 m/s 751 mmHg 51%
14:00 +30°C° 0 mm 4 m/s 751 mmHg 51%
15:00 +30°C° 0 mm 4 m/s 751 mmHg 51%
16:00 +30°C° 0 mm 4 m/s 750 mmHg 51%
17:00 +29°C° 0 mm 3 m/s 750 mmHg 58%
18:00 +28°C° 0 mm 3 m/s 750 mmHg 65%
19:00 +26°C° 0 mm 2 m/s 750 mmHg 71%
20:00 +25°C° 0 mm 3 m/s 750 mmHg 75%
21:00 +24°C° 0 mm 3 m/s 750 mmHg 79%
22:00 +21°C° 0 mm 3 m/s 751 mmHg 82%
23:00 +21°C° 0 mm 3 m/s 751 mmHg 85%

20 Juin, Dimanche

Heure Température Précipitation Vent Pression Humidité
00:00 +20°C° 0 mm 3 m/s 751 mmHg 87%
01:00 +19°C° 0 mm 3 m/s 751 mmHg 90%
02:00 +19°C° 0 mm 3 m/s 750 mmHg 91%
03:00 +19°C° 0 mm 3 m/s 750 mmHg 92%
04:00 +18°C° 0 mm 3 m/s 750 mmHg 93%
05:00 +20°C° 0 mm 3 m/s 750 mmHg 86%
06:00 +22°C° 0 mm 4 m/s 750 mmHg 79%
07:00 +23°C° 0 mm 4 m/s 750 mmHg 72%
08:00 +25°C° 0 mm 5 m/s 750 mmHg 67%
09:00 +27°C° 0 mm 5 m/s 750 mmHg 62%
10:00 +28°C° 0 mm 5 m/s 750 mmHg 57%
11:00 +28°C° 0 mm 5 m/s 749 mmHg 55%
12:00 +29°C° 0 mm 5 m/s 749 mmHg 53%
13:00 +30°C° 0 mm 5 m/s 749 mmHg 51%
14:00 +29°C° 0 mm 5 m/s 748 mmHg 53%
15:00 +29°C° 0 mm 4 m/s 748 mmHg 56%
16:00 +29°C° 0 mm 4 m/s 748 mmHg 58%
17:00 +28°C° 0 mm 4 m/s 748 mmHg 63%
18:00 +27°C° 0 mm 4 m/s 747 mmHg 67%
19:00 +26°C° 0 mm 3 m/s 747 mmHg 71%
20:00 +25°C° 0 mm 3 m/s 747 mmHg 74%
21:00 +23°C° 0 mm 4 m/s 747 mmHg 76%
22:00 +22°C° 0 mm 4 m/s 747 mmHg 78%
23:00 +21°C° 0 mm 4 m/s 747 mmHg 82%

21 Juin, Lundi

Heure Température Précipitation Vent Pression Humidité
00:00 +20°C° 0 mm 4 m/s 747 mmHg 86%
01:00 +20°C° 0 mm 4 m/s 747 mmHg 89%
02:00 +19°C° 0 mm 4 m/s 747 mmHg 91%
03:00 +19°C° 0 mm 4 m/s 746 mmHg 93%
04:00 +19°C° 0 mm 4 m/s 746 mmHg 94%
05:00 +20°C° 0 mm 4 m/s 746 mmHg 88%
06:00 +22°C° 0 mm 5 m/s 746 mmHg 81%
07:00 +24°C° 0 mm 6 m/s 746 mmHg 74%
08:00 +26°C° 0 mm 6 m/s 746 mmHg 68%
09:00 +27°C° 0 mm 6 m/s 746 mmHg 61%
10:00 +29°C° 0 mm 6 m/s 746 mmHg 55%
11:00 +29°C° 0 mm 6 m/s 746 mmHg 52%
12:00 +30°C° 0 mm 5 m/s 746 mmHg 48%
13:00 +30°C° 0 mm 5 m/s 746 mmHg 45%
14:00 +30°C° 0 mm 5 m/s 745 mmHg 47%
15:00 +30°C° 0 mm 4 m/s 745 mmHg 49%
16:00 +30°C° 0 mm 4 m/s 745 mmHg 50%
17:00 +29°C° 0.1 mm 4 m/s 745 mmHg 57%
18:00 +27°C° 0.1 mm 4 m/s 745 mmHg 65%
19:00 +26°C° 0.1 mm 3 m/s 745 mmHg 72%
20:00 +25°C° 0 mm 3 m/s 745 mmHg 74%
21:00 +24°C° 0 mm 3 m/s 745 mmHg 77%
22:00 +22°C° 0 mm 3 m/s 745 mmHg 79%
23:00 +21°C° 0 mm 3 m/s 744 mmHg 82%

22 Juin, Mardi

Heure Température Précipitation Vent Pression Humidité
00:00 +20°C° 0 mm 3 m/s 744 mmHg 86%
01:00 +20°C° 0 mm 3 m/s 744 mmHg 89%
02:00 +20°C° 0 mm 3 m/s 744 mmHg 90%
03:00 +19°C° 0 mm 3 m/s 744 mmHg 91%
04:00 +19°C° 0 mm 3 m/s 744 mmHg 92%
05:00 +21°C° 0 mm 3 m/s 744 mmHg 86%
06:00 +22°C° 0 mm 4 m/s 744 mmHg 80%
07:00 +25°C° 0 mm 4 m/s 744 mmHg 74%
08:00 +26°C° 0 mm 4 m/s 744 mmHg 69%
09:00 +28°C° 0 mm 4 m/s 744 mmHg 64%
10:00 +29°C° 0 mm 4 m/s 744 mmHg 59%
11:00 +30°C° 0 mm 3 m/s 744 mmHg 56%
12:00 +31°C° 0 mm 3 m/s 744 mmHg 53%
13:00 +33°C° 0 mm 3 m/s 744 mmHg 50%
14:00 +30°C° 0.8 mm 4 m/s 744 mmHg 59%
15:00 +28°C° 0.8 mm 5 m/s 744 mmHg 69%
16:00 +26°C° 0.8 mm 6 m/s 744 mmHg 79%
17:00 +25°C° 2.5 mm 4 m/s 745 mmHg 81%
18:00 +24°C° 2.5 mm 3 m/s 745 mmHg 83%
19:00 +24°C° 2.5 mm 1 m/s 746 mmHg 84%
20:00 +23°C° 0.5 mm 2 m/s 746 mmHg 85%
21:00 +21°C° 0.5 mm 2 m/s 746 mmHg 86%
22:00 +20°C° 0.5 mm 3 m/s 747 mmHg 87%
23:00 +19°C° 0 mm 3 m/s 747 mmHg 90%
Voir plus

Nous avons besoin de votre consentement

Meteoprog et ses fournisseurs de services peuvent stocker et accéder à des données personnelles telles que des cookies, des identifiants d'appareils ou d'autres technologies similaires sur votre appareil et traiter ces données pour personnaliser le contenu et les publicités, ainsi que pour fournir des fonctionnalités de médias sociaux et analyser le trafic.

  • Stocker et/ou accéder à des informations sur votre appareil

    Des cookies, des identifiants d'appareils ou d'autres informations peuvent être stockés ou accessibles sur votre appareil aux fins indiquées ci-dessus.

  • Annonces et contenus personnalisés, mesure des annonces et des contenus, connaissance de l'audience et développement de produits

    Les annonces et le contenu peuvent être personnalisés en fonction d'un profil. D'autres données peuvent être ajoutées pour mieux personnaliser les annonces et le contenu. Les performances des publicités et du contenu peuvent être mesurées. Il est possible d'obtenir des informations sur le public qui a vu les publicités et le contenu. Ces données peuvent être utilisées pour développer ou améliorer l'expérience de l'utilisateur, les systèmes et les logiciels.

En cliquant sur "J'accepte", vous autorisez l'utilisation de cookies, des identifiants d'appareils, des balises web ou d'autres technologies similaires. Vos paramètres peuvent être modifiés dans le navigateur de votre appareil.

Dans certains cas, des intérêts légitimes peuvent être invoqués plutôt qu'un consentement. Vous pouvez en savoir plus à ce sujet dans notre Politique de confidentialité et de cookies.